Regional Weather Roundup
Issued by NWS Cleveland, OH

Home | Current Version | Previous Version | Graphics & Text | Print | Product List | Glossary On
Versions: 1 2 3 4 5 6 7 8 9 10 11 12 13 14 15 16 17 18 19 20 21 22 23 24 25 26 27 28 29 30 31 32 33 34 35 36 37 38 39 40 41 42 43 44 45 46 47 48 49 50
000
ASUS41 KCLE 290712
RWRCLE
OHIO REGIONAL WEATHER ROUNDUP
NATIONAL WEATHER SERVICE WILMINGTON, OH
300 AM EDT FRI JUL 29 2016

NOTE: "FAIR" INDICATES FEW OR NO CLOUDS BELOW 12,000 FEET WITH NO
SIGNIFICANT WEATHER AND/OR OBSTRUCTIONS TO VISIBILITY.

OHZ001>008-015>018-024>027-034-035-043-044-290800-
   NORTHWEST OHIO

CITY           SKY/WX    TMP DP  RH WIND       PRES   REMARKS
DEFIANCE       FAIR      72  66  81 NE5       29.91F
FINDLAY        FAIR      72  64  76 NE6       29.91F
TOLEDO EXPRESS MOCLDY    72  65  78 NE8       29.92S
TOLEDO EXEC    FAIR      74  66  76 NE6       29.93F
LIMA           FAIR      66  65  96 CALM      29.92S
$$

OHZ009>014-019>023-028>033-038-089-290800-
   NORTHEAST OHIO

CITY           SKY/WX    TMP DP  RH WIND       PRES   REMARKS
CLE-HOPKINS    FAIR      69  64  84 CALM      29.93R
CLE-LAKEFRONT  FAIR      74  68  81 CALM      29.89S
CUY CO. ARPT   NOT AVBL
LORAIN-ELYRIA  FAIR      63  61  93 NW5       29.93R FOG
ASHTABULA      FAIR      65  64  97 SE5       29.92S
AKRON-CANTON   CLOUDY    69  67  93 CALM      29.93R
WOOSTER        FOG       68  68 100 NW3       29.93R VSB 1/4
MANSFIELD      FAIR      66  65  96 NW3       29.94R
YOUNGSTOWN     FAIR      64  63  96 SE3       29.92S
$$

OHZ042-051>053-060>062-070>072-077>081-290800-
  SOUTHWEST OHIO

CITY           SKY/WX    TMP DP  RH WIND       PRES   REMARKS
CINC-COVINGTON FAIR      73  73 100 CALM      29.91F FOG
CINC-LUNKEN    CLOUDY    72  72 100 CALM      29.91S
HAMILTON       FAIR      70  68  93 CALM      29.92S
DAYTON         FAIR      71  68  90 W6        29.92F
WRIGHT-PAT AFB NOT AVBL
DAYTON GENERAL FAIR      71  68  90 CALM      29.91F
WILMINGTON     FAIR      71  71 100 SW5       29.92F
$$

OHZ036-037-039>041-045>050-054>059-063>069-073>076-082>088-290800-
  CENTRAL AND SOUTHEAST OHIO

CITY           SKY/WX    TMP DP  RH WIND       PRES   REMARKS
COLUMBUS       FAIR      70  70 100 CALM      29.91S
OSU AIRPORT    FOG       68  68 100 CALM      29.92S VSB 1/4
BOLTON FIELD     N/A     66  66 100 CALM      29.92S VSB 3/4
RICKENBACK AFB MOCLDY    67  67 100 CALM      29.91F FOG
NEWARK         FOG       71  70  96 W3        29.92R VSB 1/4
MARION         FAIR      67  65  93 E6        29.93R FOG
LANCASTER      FAIR      67  67 100 CALM      29.92R
ZANESVILLE     FOG       73  70  90 CALM      29.92R VSB 3/4
NEW PHILLY     CLOUDY    72  69  90 CALM      29.92S FOG
$$




USA.gov is the U.S. government's official web portal to all federal, state and local government web resources and services.